Le nostre stazioni meteo in Italia

Pubblicità
Il mio iltempo24.it
Lulea/Kallax, Svezia (2186): Temperatura & dewpoint: 10.01.2017 15:00:00 - 16.01.2017 15:00:00 (CET)Lulea/Kallax, Svezia (2186): velocità del vento & gusts: 10.01.2017 15:00:00 - 16.01.2017 15:00:00 (CET)Lulea/Kallax, Svezia (2186): direzione del vento: 10.01.2017 15:00:00 - 16.01.2017 15:00:00 (CET)Lulea/Kallax, Svezia (2186): reduced air pressure: 10.01.2017 15:00:00 - 16.01.2017 15:00:00 (CET)Lulea/Kallax, Svezia (2186): visibility: 10.01.2017 15:00:00 - 16.01.2017 15:00:00 (CET)Lulea/Kallax, Svezia (2186): precipitazioni: 10.01.2017 15:00:00 - 16.01.2017 15:00:00 (CET)
Data & Tempo tt [°C] td [°C] ff [km/h] ff [kn] fx [km/h] fx [kn] dd ppp [hPa] vv [km] rr [mm]
16.01.2017 15:00:00 -11,2 -12,7 8 4 18 10 NNO 1023,4 10 0,0
16.01.2017 14:00:00 -10,1 -11,9 13 7 18 10 NO 1023,3 10 0,0
16.01.2017 13:00:00 -9,4 -11,5 15 8 18 10 NO 1022,8 10 0,0
16.01.2017 12:00:00 -9,1 -11,1 16 9 22 12 NO 1023,0 10 0,0
16.01.2017 11:00:00 -8,8 -10,9 13 7 18 10 NNO 1022,6 10 0,0
16.01.2017 10:00:00 -9,5 -11,1 11 6 22 12 NNO 1022,4 10 0,0
16.01.2017 09:00:00 -9,1 -10,8 13 7 29 16 NNO 1021,8 10 0,0
16.01.2017 08:00:00 -8,4 -10,6 21 11 29 16 NNO 1020,9 10 0,0
16.01.2017 07:00:00 -7,9 -10,1 21 11 29 16 NNO 1020,3 10 0,0
16.01.2017 06:00:00 -7,5 -9,5 21 11 32 18 NNO 1019,6 10 0,0
16.01.2017 05:00:00 -7,3 -9,0 18 10 32 18 NNO 1019,0 10 0,0
16.01.2017 04:00:00 -7,5 -9,1 21 11 32 18 NNO 1018,4 10 0,0
16.01.2017 03:00:00 -8,1 -9,8 18 10 25 14 NNO 1017,6 10 0,0
16.01.2017 02:00:00 -7,6 -9,4 16 9 29 16 NNO 1016,6 10 0,0
16.01.2017 01:00:00 -8,1 -9,9 18 10 25 14 NNO 1016,2 10 0,0
16.01.2017 00:00:00 -9,9 -11,4 16 9 25 14 NNO 1015,6 10 0,0
15.01.2017 23:00:00 -12,2 -13,7 15 8 22 12 NNO 1014,6 10 0,0
15.01.2017 22:00:00 -13,3 -14,7 9 5 18 10 N 1013,7 10 0,0
15.01.2017 21:00:00 -15,4 -17,0 11 6 18 10 NNO 1012,7 10 0,0
15.01.2017 20:00:00 -16,5 -18,2 9 5 14 8 NNO 1012,0 10 0,0
15.01.2017 19:00:00 -17,2 -18,9 8 4 11 6 NNO 1010,9 10 0,0
15.01.2017 18:00:00 -16,8 -18,6 8 4 11 6 NNO 1009,7 10 0,0
15.01.2017 17:00:00 -16,3 -17,9 5 3 14 8 NNO 1008,7 10 0,0
15.01.2017 16:00:00 -15,2 -16,7 5 3 11 6 NNO 1007,5 10 0,0
15.01.2017 15:00:00 -14,7 -16,2 4 2 11 6 - 1006,4 10 0,0
15.01.2017 14:00:00 -15,1 -16,6 5 3 7 4 NNO 1005,5 10 0,0
15.01.2017 13:00:00 -14,6 -16,0 5 3 7 4 NO 1004,5 10 0,0
15.01.2017 12:00:00 -15,0 -16,5 0 0 7 4 N 1004,1 10 0,0
15.01.2017 11:00:00 -16,0 -17,6 0 0 7 4 N 1003,6 10 0,0
15.01.2017 10:00:00 -16,7 -18,4 2 1 4 2 - 1003,1 10 0,0
15.01.2017 09:00:00 -18,5 -20,3 0 0 4 2 N 1002,7 10 0,0
15.01.2017 08:00:00 -18,4 -20,2 0 0 4 2 N 1002,2 2,2 0,0
15.01.2017 07:00:00 -18,7 -20,5 0 0 4 2 N 1001,6 10 0,0
15.01.2017 06:00:00 -18,4 -20,2 0 0 7 4 N 1001,3 10 0,0
15.01.2017 05:00:00 -18,8 -20,5 4 2 7 4 SE 1000,8 0,6 0,0
15.01.2017 04:00:00 -18,6 -20,4 2 1 4 2 SE 1000,5 10 0,0
15.01.2017 03:00:00 -16,0 -17,6 0 0 4 2 N 1000,6 10 0,0
15.01.2017 02:00:00 -16,8 -18,5 4 2 4 2 SE 1000,1 10 0,0
15.01.2017 01:00:00 -16,7 -18,3 2 1 4 2 SSO 999,7 10 0,0
15.01.2017 00:00:00 -16,0 -17,6 4 2 4 2 - 999,3 3,4 0,0
14.01.2017 23:00:00 -16,4 -18,0 2 1 7 4 - 998,9 10 0,0
14.01.2017 22:00:00 -14,1 -15,4 4 2 7 4 - 998,4 10 0,0
14.01.2017 21:00:00 -12,4 -13,6 5 3 7 4 NO 997,9 10 0,0
14.01.2017 20:00:00 -14,4 -15,8 2 1 7 4 - 997,7 10 0,0
14.01.2017 19:00:00 -11,8 -13,0 2 1 7 4 - 997,1 10 0,0
14.01.2017 18:00:00 -10,4 -11,4 4 2 11 6 OSO 996,4 10 0,0
14.01.2017 17:00:00 -8,6 -9,3 5 3 11 6 N 996,0 10 0,0
14.01.2017 16:00:00 -7,5 -8,5 8 4 14 8 ONO 995,5 10 0,0
14.01.2017 15:00:00 -5,5 -6,4 11 6 14 8 ONO 994,5 10 0,0
14.01.2017 14:00:00 -4,9 -5,8 8 4 11 6 NO 993,7 10 0,0
14.01.2017 13:00:00 -4,8 -5,8 8 4 14 8 NO 993,1 10 0,0
14.01.2017 12:00:00 -5,0 -6,0 9 5 14 8 NO 992,6 10 0,0
14.01.2017 11:00:00 -5,1 -6,1 7 4 14 8 NNO 991,9 17 0,0
14.01.2017 10:00:00 -5,0 -5,9 11 6 18 10 NNO 991,3 10 0,0
14.01.2017 09:00:00 -5,1 -5,9 11 6 18 10 NNO 990,6 10 0,0
14.01.2017 08:00:00 -4,9 -5,7 9 5 22 12 N 989,8 10 0,0
14.01.2017 07:00:00 -4,7 -5,6 11 6 22 12 N 988,9 10 0,0
14.01.2017 06:00:00 -4,6 -5,3 11 6 22 12 N 988,1 10 0,0
14.01.2017 05:00:00 -4,0 -4,6 8 4 14 8 NNE 987,4 10 0,0
14.01.2017 04:00:00 -4,2 -4,6 2 1 4 2 - 986,9 9 0,0
14.01.2017 03:00:00 -3,7 -4,1 2 1 7 4 - 986,6 8 0,0
14.01.2017 02:00:00 -2,3 -2,8 8 4 11 6 SO 985,9 3,7 0,3
14.01.2017 01:00:00 -2,0 -2,4 8 4 25 14 SSO 985,7 2,1 0,6
14.01.2017 00:00:00 -1,5 -1,9 16 9 25 14 ESE 985,3 1,4 1,0
13.01.2017 23:00:00 -1,7 -2,1 16 9 25 14 SE 985,1 1,2 0,6
13.01.2017 22:00:00 -1,7 -2,1 21 11 29 16 SE 984,9 2,0 0,7
13.01.2017 21:00:00 -1,4 -1,8 22 12 29 16 SSE 984,8 1,1 0,6
13.01.2017 20:00:00 -1,3 -1,7 22 12 32 18 SSE 984,5 1,5 0,5
13.01.2017 19:00:00 -1,4 -1,8 24 13 32 18 SE 984,3 1,8 0,5
13.01.2017 18:00:00 -1,2 -1,6 21 11 25 14 SSE 984,1 4,4 0,1
13.01.2017 17:00:00 -1,2 -1,6 22 12 25 14 SE 984,0 5 0,1
13.01.2017 16:00:00 -1,3 -1,7 21 11 32 18 SSE 983,7 2,6 0,5
13.01.2017 15:00:00 -1,3 -1,7 24 13 32 18 SSE 983,4 4,6 0,4
13.01.2017 14:00:00 -1,2 -1,7 25 14 29 16 SSE 983,3 1,9 0,7
13.01.2017 13:00:00 -1,2 -1,7 26 14 29 16 SSE 983,0 3,0 0,4
13.01.2017 12:00:00 -1,2 -1,6 22 12 29 16 SSE 983,0 3,0 0,6
13.01.2017 11:00:00 -1,3 -1,7 22 12 25 14 SSE 982,9 1,5 0,3
13.01.2017 10:00:00 -1,4 -1,8 18 10 25 14 SSE 982,9 2,0 0,4
13.01.2017 09:00:00 - - - - - - - - - -
13.01.2017 08:00:00 - - - - - - - - - -
13.01.2017 07:00:00 - - - - - - - - - -
13.01.2017 06:00:00 - - - - - - - - - -
13.01.2017 05:00:00 - - - - - - - - - -
13.01.2017 04:00:00 - - - - - - - - - -
13.01.2017 03:00:00 - - - - - - - - - -
13.01.2017 02:00:00 - - - - - - - - - -
13.01.2017 01:00:00 - - - - - - - - - -
13.01.2017 00:00:00 -1,4 -2,2 41 22 50 27 SSE 980,7 3,3 0,5
12.01.2017 23:00:00 -1,3 -2,0 41 22 54 29 SSE 980,7 2,2 0,5
12.01.2017 22:00:00 -1,3 -1,9 39 21 50 27 SSE 980,3 2,1 1,0
12.01.2017 21:00:00 -1,5 -2,1 39 21 50 27 SSE 980,3 3,6 0,6
12.01.2017 20:00:00 -1,8 -2,4 34 18 47 25 SE 980,2 2,8 0,5
12.01.2017 19:00:00 -2,2 -2,7 31 17 40 21 SE 980,6 2,0 0,8
12.01.2017 18:00:00 -2,4 -3,0 34 18 40 21 SSE 980,7 2,0 0,7
12.01.2017 17:00:00 -2,6 -3,1 31 17 43 23 SE 980,9 3,9 1,0
12.01.2017 16:00:00 -2,5 -3,2 34 18 43 23 SE 980,9 3,5 0,7
12.01.2017 15:00:00 -2,5 -3,7 35 19 47 25 SE 981,0 2,0 0,2
12.01.2017 14:00:00 -2,3 -3,7 34 18 43 23 SE 980,9 8 0,0
12.01.2017 13:00:00 -3,0 -3,6 34 18 43 23 SE 981,1 0,7 -
12.01.2017 12:00:00 -3,1 -3,7 34 18 47 25 SE 981,0 0,7 2,0
12.01.2017 11:00:00 -3,0 -3,6 37 20 47 25 SSE 981,2 1,5 0,9
12.01.2017 10:00:00 -2,7 -3,5 35 19 43 23 SE 981,2 2,5 0,6
12.01.2017 09:00:00 -2,7 -4,3 35 19 43 23 SSE 981,3 6 0,3
12.01.2017 08:00:00 -2,8 -3,6 34 18 43 23 SSE 981,4 2,5 1,0
12.01.2017 07:00:00 -2,7 -3,7 34 18 47 25 SSE 981,5 2,5 0,6
12.01.2017 06:00:00 -2,7 -3,5 34 18 50 27 SSE 981,8 2,5 1,0
12.01.2017 05:00:00 -2,5 -3,4 41 22 50 27 SSE 981,9 1,2 0,9
12.01.2017 04:00:00 -2,0 -3,0 39 21 50 27 SSE 982,3 2,1 0,8
12.01.2017 03:00:00 -1,9 -2,8 37 20 58 31 SSE 982,7 1,1 0,5
12.01.2017 02:00:00 -0,7 -3,1 37 20 54 29 S 982,7 4,8 0,1
12.01.2017 01:00:00 0,3 -2,7 37 20 50 27 SSE 982,6 10 0,0
12.01.2017 00:00:00 0,5 -1,3 34 18 50 27 SSE 982,6 2,7 0,0
11.01.2017 23:00:00 0,6 -1,2 31 17 47 25 S 982,9 10 0,0
11.01.2017 22:00:00 0,1 -0,6 29 16 47 25 S 983,3 3,1 0,3
11.01.2017 21:00:00 0,5 -0,5 39 21 54 29 S 983,4 7 0,0
11.01.2017 20:00:00 0,9 -0,8 37 20 58 31 S 983,2 10 0,0
11.01.2017 19:00:00 0,9 -0,4 35 19 61 33 S 983,1 10 0,0
11.01.2017 18:00:00 1,3 -0,3 35 19 50 27 S 983,0 10 0,0
11.01.2017 17:00:00 1,1 -0,1 34 18 50 27 S 983,2 10 0,0
11.01.2017 16:00:00 0,9 -0,1 31 17 50 27 S 983,1 8 0,0
11.01.2017 15:00:00 1,3 -0,2 31 17 50 27 S 983,2 10 0,0
11.01.2017 14:00:00 1,2 -0,2 29 16 54 29 S 983,4 45 0,0
11.01.2017 13:00:00 1,2 -0,3 29 16 50 27 S 983,4 10 0,0
11.01.2017 12:00:00 1,0 -0,3 29 16 50 27 S 983,9 10 0,0
11.01.2017 11:00:00 1,0 -0,3 31 17 50 27 S 984,4 10 0,0
11.01.2017 10:00:00 0,8 -0,1 31 17 43 23 S 985,0 10 0,0
11.01.2017 09:00:00 0,7 -0,3 29 16 50 27 S 985,5 10 0,0
11.01.2017 08:00:00 0,9 -0,2 31 17 50 27 S 985,8 10 0,0
11.01.2017 07:00:00 1,2 -0,3 34 18 50 27 S 986,0 10 0,0
11.01.2017 06:00:00 1,0 -0,3 29 16 47 25 S 986,5 10 0,0
11.01.2017 05:00:00 0,8 -0,2 29 16 50 27 S 987,2 10 0,0
11.01.2017 04:00:00 0,8 -0,2 31 17 43 23 S 988,3 10 0,0
11.01.2017 03:00:00 0,8 0,0 29 16 43 23 S 989,2 10 0,0
11.01.2017 02:00:00 1,0 0,0 26 14 43 23 S 990,3 10 0,0
11.01.2017 01:00:00 1,1 0,0 26 14 40 21 S 991,2 10 0,0
11.01.2017 00:00:00 1,0 0,2 28 15 43 23 S 992,0 10 0,0
10.01.2017 23:00:00 1,2 0,0 24 13 36 19 S 992,8 10 0,0
10.01.2017 22:00:00 1,1 0,2 22 12 36 19 S 993,6 10 0,0
10.01.2017 21:00:00 1,0 0,2 18 10 29 16 S 994,3 10 0,0
10.01.2017 20:00:00 0,6 0,2 16 9 29 16 S 995,0 10 0,0
10.01.2017 19:00:00 -0,6 -0,9 11 6 22 12 SSO 995,5 10 0,0
10.01.2017 18:00:00 -1,3 -1,6 9 5 22 12 S 996,4 10 0,0
10.01.2017 17:00:00 -1,8 -2,1 11 6 22 12 SSO 996,7 5 0,0
10.01.2017 16:00:00 -1,0 -1,3 5 3 18 10 SSE 997,3 0,2 0,0
10.01.2017 15:00:00 -1,5 -1,8 0 0 4 2 N 997,8 0,3 0,0

tt = Temperatura
td = dewpoint
ff = velocità del vento
fx = gusts
dd = direzione del vento
ppp = reduced air pressure
vv = visibility
rr = precipitazioni

Stazioni seguenti

WeatherPro
AMSI
MeteoEarth